CZ-6A DEB, 61149

Orbit data source: Space-Track

CZ-6A DEB, 61149 is space debris in LEO originally from a launch on Tue, 06 Aug 2024 UTC launched from the Taiyaun Space Center, China (TSC). Debris objects in space refer to the collection of defunct objects orbiting the Earth. Examples of debris include non-operational satellites, rocket bodies, and fragments generated from explosions, collisions, or faulty payload assembly.

Loading next visibility...
Identifier
61149, 2024-140QT
Orbit
LEO
Country
Flag of CNCN / PRC
Related business
Manufacturer
SAST
Mission
Spacecraft
Bus & Motor
Unknown
Mass
Unknown
Launch date (UTC)
2024-08-06 (2 years ago)
Launch vehicle
Unknown
Launch site
Taiyaun Space Center, China (TSC)
Object type
Payload
Rocket body
Debris
Shape & HBR
Unknown shape, 0.1 m
Radar Cross Section
Medium (>0.1 m² and <1 m²)

Expand to show TLE details & history
Last TLE update: 17 hours ago

TLE from 17 hours ago
0 CZ-6A DEB
1 61149U 24140QT  26171.21919401  .00000501  00000-0  19672-3 0  9990
2 61149  88.9509 269.2831 0028483 210.6230 149.3304 14.27657523 95158
Epoch: 2026-06-20T05:15Z
TLE epoch observation values (Epoch: 2026-06-20T05:15:38.362Z)
Latitude
0.00007°
Longitude
-78.0637°
Altitude
820.239 km
Speed
7.434 km/s
True Right ascension
17h 57m 07s
True Declination
0° 00' 00"
Sunlit
Object was in full shadow at epoch
Visualization orbit readout
Latitude
Unknown
Longitude
Unknown
Altitude
Unknown
Speed
Unknown
Apparent Right ascension
Unknown
Apparent Declination
Unknown
Sunlit
N/A
Visualization observer readout
Local Sidereal Time
08:42:28
Azimuth
Unknown
Elevation
Unknown
Doppler factor
Unknown
Orbital elements
Apogee altitude
816.948 km
Perigee altitude
776.076 km
Semi-major axis
7,174.649 km
Eccentricity
0.00285
Inclination
88.9509°
RAAN
269.2831°
Arg. of periapsis
210.623°
True anomaly
149.49638°
Mean anomaly
149.3304°
Eccentric anomaly
149.41344°
Mean motion
3.57143 °/min
Orbital period
100.8 mins
BSTAR
0.00019672
Loading maneuver chart data...
Computing Atmospheric mass density...
Loading historical data...
Loading historical data...
Loading historical data...
Loading historical data...
Loading historical data...
Loading historical data...
Loading historical data...

Documentation

Showing up to 5 results
|